Radiation Dose at Monitoring Post of Fukushima Daini Nuclear Power Station
Date,Time,MP-1(microSv/h),MP-2(microSv/h),MP-3(microSv/h),MP-4(microSv/h),MP-5(microSv/h),MP-6(microSv/h),MP-7(microSv/h),Wind Direction,Wind Velocity(m/s),Rain
2015/03/16,00:00,0.545,0.334,0.569,0.525,0.557,0.255,0.228,north,1.4,No
2015/03/16,00:10,0.543,0.336,0.570,0.526,0.555,0.256,0.228,north,1.4,No
2015/03/16,00:20,0.546,0.335,0.568,0.525,0.554,0.256,0.227,north,1.4,No
2015/03/16,00:30,0.547,0.334,0.568,0.526,0.555,0.257,0.228,north,1.6,No
2015/03/16,00:40,0.546,0.336,0.568,0.524,0.555,0.257,0.229,north,1.9,No
2015/03/16,00:50,0.544,0.337,0.570,0.524,0.553,0.256,0.227,north,3.0,No
2015/03/16,01:00,0.545,0.336,0.569,0.527,0.557,0.256,0.228,north,3.0,No
2015/03/16,01:10,0.545,0.335,0.568,0.527,0.555,0.256,0.229,north,3.6,No
2015/03/16,01:20,0.544,0.337,0.569,0.526,0.557,0.255,0.228,north,3.7,No
2015/03/16,01:30,0.545,0.336,0.570,0.525,0.555,0.256,0.227,north,2.6,No
2015/03/16,01:40,0.546,0.336,0.568,0.525,0.557,0.255,0.229,north-northwest,2.4,No
2015/03/16,01:50,0.547,0.336,0.568,0.525,0.557,0.257,0.228,north,3.1,No
2015/03/16,02:00,0.545,0.336,0.570,0.525,0.554,0.256,0.227,north,2.0,No
2015/03/16,02:10,0.545,0.336,0.571,0.525,0.556,0.255,0.229,north-northeast,1.7,No
2015/03/16,02:20,0.545,0.336,0.567,0.525,0.556,0.256,0.227,north-northeast,1.8,No
2015/03/16,02:30,0.545,0.337,0.569,0.524,0.555,0.256,0.229,north-northeast,0.8,No
2015/03/16,02:40,0.545,0.334,0.570,0.525,0.554,0.255,0.227,-,CALM,No
2015/03/16,02:50,0.547,0.336,0.569,0.527,0.556,0.256,0.228,-,CALM,No
2015/03/16,03:00,0.544,0.335,0.568,0.525,0.556,0.257,0.228,-,CALM,No
2015/03/16,03:10,0.545,0.335,0.571,0.524,0.554,0.257,0.228,west-southwest,0.7,No
2015/03/16,03:20,0.546,0.336,0.569,0.525,0.555,0.257,0.229,south-southwest,0.8,No
2015/03/16,03:30,0.545,0.337,0.569,0.525,0.558,0.256,0.230,south-southwest,1.1,No
2015/03/16,03:40,0.544,0.335,0.567,0.525,0.554,0.256,0.227,southwest,1.2,No
2015/03/16,03:50,0.545,0.335,0.568,0.525,0.556,0.256,0.228,south-southwest,0.8,No
2015/03/16,04:00,0.547,0.334,0.570,0.523,0.555,0.256,0.228,south-southwest,1.4,No
2015/03/16,04:10,0.545,0.336,0.569,0.527,0.556,0.257,0.228,south-southeast,2.5,No
2015/03/16,04:20,0.543,0.335,0.569,0.525,0.555,0.257,0.229,south,2.5,No
2015/03/16,04:30,0.546,0.335,0.568,0.525,0.555,0.258,0.229,south,3.1,No
2015/03/16,04:40,0.545,0.335,0.569,0.526,0.555,0.256,0.229,south,2.6,No
2015/03/16,04:50,0.544,0.336,0.568,0.526,0.557,0.256,0.227,south-southwest,2.9,No
2015/03/16,05:00,0.545,0.337,0.568,0.525,0.556,0.257,0.227,southwest,1.8,No
2015/03/16,05:10,0.546,0.335,0.570,0.526,0.554,0.256,0.228,south-southwest,2.2,No
2015/03/16,05:20,0.545,0.336,0.570,0.525,0.555,0.256,0.228,-,CALM,No
2015/03/16,05:30,0.545,0.336,0.568,0.528,0.553,0.257,0.228,east-northeast,0.6,No
2015/03/16,05:40,0.546,0.336,0.570,0.524,0.555,0.256,0.228,-,CALM,No
2015/03/16,05:50,0.546,0.337,0.570,0.525,0.556,0.258,0.229,west-southwest,1.2,No
2015/03/16,06:00,0.543,0.335,0.570,0.525,0.557,0.258,0.227,-,CALM,No
2015/03/16,06:10,0.547,0.335,0.569,0.525,0.555,0.257,0.228,west-southwest,1.4,No
2015/03/16,06:20,0.546,0.337,0.570,0.526,0.552,0.256,0.229,west-southwest,2.8,No
2015/03/16,06:30,0.545,0.336,0.572,0.524,0.554,0.257,0.228,southwest,3.2,No
2015/03/16,06:40,0.544,0.334,0.568,0.524,0.557,0.258,0.228,west-southwest,3.2,No
2015/03/16,06:50,0.543,0.334,0.566,0.524,0.554,0.255,0.228,west-southwest,2.4,No
2015/03/16,07:00,0.545,0.335,0.568,0.524,0.554,0.256,0.227,west-southwest,3.6,No
2015/03/16,07:10,0.545,0.336,0.570,0.524,0.555,0.256,0.227,west,4.0,No
2015/03/16,07:20,0.544,0.337,0.568,0.524,0.555,0.256,0.228,west-southwest,2.4,No
2015/03/16,07:30,0.546,0.334,0.568,0.525,0.555,0.256,0.227,west-southwest,2.5,No
2015/03/16,07:40,0.545,0.337,0.569,0.523,0.557,0.256,0.226,west-southwest,1.1,No
2015/03/16,07:50,0.544,0.336,0.569,0.523,0.554,0.255,0.227,west-southwest,0.9,No
2015/03/16,08:00,0.546,0.336,0.565,0.525,0.554,0.258,0.228,west-southwest,0.6,No
2015/03/16,08:10,0.546,0.339,0.570,0.522,0.557,0.256,0.228,-,CALM,No
2015/03/16,08:20,0.545,0.335,0.571,0.526,0.554,0.257,0.227,-,CALM,No
2015/03/16,08:30,0.547,0.335,0.566,0.526,0.557,0.257,0.228,-,CALM,No
2015/03/16,08:40,0.545,0.335,0.571,0.525,0.558,0.256,0.228,north,1.4,No
2015/03/16,08:50,0.544,0.334,0.570,0.525,0.556,0.257,0.228,north-northeast,0.8,No
2015/03/16,09:00,0.546,0.336,0.567,0.525,0.560,0.256,0.228,northeast,1.1,No
2015/03/16,09:10,0.542,0.335,0.570,0.525,0.557,0.257,0.227,northeast,1.3,No
2015/03/16,09:20,0.546,0.334,0.568,0.523,0.559,0.256,0.229,east-northeast,0.8,No
2015/03/16,09:30,0.544,0.335,0.569,0.528,0.558,0.256,0.229,east,0.9,No
2015/03/16,09:40,0.544,0.335,0.569,0.523,0.556,0.257,0.228,-,CALM,No
2015/03/16,09:50,0.543,0.338,0.567,0.527,0.559,0.255,0.228,south,1.7,No
2015/03/16,10:00,0.543,0.335,0.572,0.524,0.556,0.258,0.227,south,0.9,No
2015/03/16,10:10,0.544,0.335,0.568,0.526,0.557,0.256,0.229,south-southeast,1.1,No
2015/03/16,10:20,0.537,0.333,0.570,0.522,0.554,0.256,0.227,south-southeast,1.1,No
2015/03/16,10:30,0.543,0.337,0.568,0.529,0.558,0.256,0.227,east-southeast,2.2,No
2015/03/16,10:40,0.541,0.334,0.567,0.522,0.553,0.257,0.227,east-southeast,2.5,No
2015/03/16,10:50,0.546,0.336,0.569,0.528,0.558,0.255,0.228,southeast,1.4,No
2015/03/16,11:00,0.541,0.335,0.565,0.524,0.557,0.257,0.228,south-southeast,1.7,No
2015/03/16,11:10,0.547,0.335,0.570,0.528,0.558,0.255,0.228,south,1.9,No
2015/03/16,11:20,0.540,0.335,0.566,0.524,0.556,0.257,0.228,south-southeast,1.9,No
2015/03/16,11:30,0.545,0.336,0.570,0.529,0.558,0.255,0.228,south-southeast,1.3,No
2015/03/16,11:40,0.542,0.335,0.565,0.524,0.557,0.257,0.228,south-southeast,1.6,No
2015/03/16,11:50,0.547,0.337,0.571,0.528,0.557,0.254,0.227,southeast,0.8,No
2015/03/16,12:00,0.542,0.336,0.567,0.525,0.560,0.257,0.228,east,1.0,No
2015/03/16,12:10,0.545,0.336,0.570,0.528,0.555,0.255,0.227,east-southeast,1.1,No
2015/03/16,12:20,0.543,0.337,0.565,0.525,0.559,0.256,0.228,south-southeast,1.7,No
2015/03/16,12:30,0.544,0.334,0.569,0.530,0.555,0.256,0.227,south-southeast,1.7,No
2015/03/16,12:40,0.543,0.337,0.566,0.526,0.559,0.257,0.228,south-southeast,1.4,No
2015/03/16,12:50,0.544,0.336,0.569,0.528,0.559,0.255,0.228,east,1.0,No
2015/03/16,13:00,0.546,0.337,0.567,0.527,0.560,0.255,0.228,south,0.8,No
2015/03/16,13:10,0.541,0.335,0.569,0.525,0.560,0.256,0.228,southeast,1.8,No
2015/03/16,13:20,0.546,0.336,0.567,0.529,0.557,0.256,0.227,southeast,1.9,No
2015/03/16,13:30,0.540,0.334,0.569,0.525,0.559,0.256,0.229,south-southeast,2.0,No
2015/03/16,13:40,0.544,0.335,0.568,0.529,0.557,0.255,0.227,south-southeast,2.0,No
2015/03/16,13:50,0.541,0.334,0.569,0.525,0.560,0.256,0.228,south,1.9,No
2015/03/16,14:00,0.545,0.335,0.567,0.528,0.555,0.255,0.229,south,1.8,No
2015/03/16,14:10,0.541,0.338,0.570,0.526,0.561,0.255,0.228,south,1.5,No
2015/03/16,14:20,0.545,0.335,0.568,0.528,0.555,0.255,0.228,south,1.1,No
2015/03/16,14:30,0.542,0.335,0.572,0.527,0.563,0.256,0.228,south-southeast,0.7,No
2015/03/16,14:40,0.545,0.335,0.567,0.528,0.555,0.257,0.228,south,1.7,No
2015/03/16,14:50,0.544,0.335,0.573,0.528,0.562,0.257,0.228,south-southeast,1.8,No
2015/03/16,15:00,0.543,0.335,0.568,0.526,0.558,0.255,0.227,south-southeast,1.2,No
2015/03/16,15:10,0.545,0.335,0.569,0.527,0.557,0.255,0.229,southeast,1.3,No
2015/03/16,15:20,0.542,0.337,0.570,0.526,0.557,0.255,0.226,south-southeast,1.8,No
2015/03/16,15:30,0.544,0.334,0.569,0.528,0.555,0.256,0.228,south,2.1,No
2015/03/16,15:40,0.538,0.336,0.571,0.527,0.560,0.256,0.227,south-southeast,2.4,No
2015/03/16,15:50,0.543,0.337,0.567,0.524,0.555,0.255,0.228,south-southeast,2.1,No
2015/03/16,16:00,0.540,0.335,0.571,0.529,0.559,0.256,0.228,south,3.0,No
2015/03/16,16:10,0.542,0.336,0.570,0.525,0.555,0.256,0.228,south,3.6,No
2015/03/16,16:20,0.541,0.335,0.568,0.527,0.555,0.255,0.228,south,4.3,No
2015/03/16,16:30,0.541,0.334,0.570,0.529,0.558,0.255,0.227,south,6.1,No
2015/03/16,16:40,0.545,0.336,0.565,0.527,0.556,0.256,0.227,south,4.2,No
2015/03/16,16:50,0.544,0.335,0.572,0.526,0.561,0.256,0.228,south,5.3,No
2015/03/16,17:00,0.544,0.335,0.568,0.528,0.556,0.255,0.227,south,5.4,No
2015/03/16,17:10,0.543,0.336,0.570,0.526,0.556,0.255,0.228,south,4.8,No
2015/03/16,17:20,0.542,0.335,0.572,0.528,0.560,0.256,0.229,south,5.2,No
2015/03/16,17:30,0.546,0.336,0.568,0.526,0.556,0.255,0.227,south,4.5,No
2015/03/16,17:40,0.544,0.335,0.571,0.525,0.556,0.255,0.229,south,3.8,No
2015/03/16,17:50,0.544,0.334,0.569,0.528,0.555,0.255,0.228,south,3.0,No
2015/03/16,18:00,0.544,0.338,0.565,0.526,0.553,0.255,0.227,south,3.6,No
2015/03/16,18:10,0.545,0.336,0.571,0.525,0.555,0.255,0.226,south,3.3,No
2015/03/16,18:20,0.546,0.334,0.570,0.527,0.555,0.255,0.229,south,3.9,No
2015/03/16,18:30,0.543,0.337,0.570,0.525,0.558,0.254,0.228,south,5.1,No
2015/03/16,18:40,0.543,0.335,0.569,0.526,0.559,0.255,0.228,south,4.7,No
2015/03/16,18:50,0.545,0.336,0.568,0.528,0.557,0.256,0.227,south-southwest,4.5,No
2015/03/16,19:00,0.543,0.336,0.568,0.524,0.556,0.255,0.227,south,5.3,No
2015/03/16,19:10,0.545,0.335,0.571,0.526,0.558,0.256,0.227,south,5.3,No
2015/03/16,19:20,0.543,0.336,0.568,0.526,0.556,0.255,0.228,south,6.2,No
2015/03/16,19:30,0.543,0.337,0.569,0.525,0.557,0.256,0.227,south,7.0,No
2015/03/16,19:40,0.544,0.335,0.571,0.526,0.558,0.255,0.226,south,6.0,No
2015/03/16,19:50,0.544,0.334,0.567,0.527,0.557,0.256,0.227,south,5.4,No
2015/03/16,20:00,0.547,0.334,0.569,0.526,0.555,0.255,0.229,south,5.2,No
2015/03/16,20:10,0.544,0.334,0.569,0.525,0.558,0.255,0.228,south,6.4,No
2015/03/16,20:20,0.543,0.336,0.568,0.529,0.555,0.257,0.227,south,6.4,No
2015/03/16,20:30,0.546,0.334,0.569,0.526,0.553,0.255,0.226,south,5.7,No
2015/03/16,20:40,0.543,0.335,0.567,0.528,0.556,0.256,0.227,south,4.8,No
2015/03/16,20:50,0.543,0.335,0.568,0.527,0.555,0.256,0.228,south,4.7,No
2015/03/16,21:00,0.544,0.334,0.571,0.524,0.558,0.255,0.228,south,4.5,No
2015/03/16,21:10,0.541,0.335,0.566,0.529,0.556,0.255,0.226,south,4.7,No
2015/03/16,21:20,0.542,0.335,0.569,0.526,0.555,0.256,0.227,south,5.0,No
2015/03/16,21:30,0.545,0.334,0.570,0.526,0.557,0.254,0.227,south,4.3,No
2015/03/16,21:40,0.542,0.334,0.570,0.527,0.556,0.256,0.227,south,4.2,No
2015/03/16,21:50,0.545,0.336,0.573,0.527,0.554,0.255,0.226,south-southwest,4.7,No
2015/03/16,22:00,0.544,0.336,0.567,0.526,0.558,0.255,0.228,south-southwest,4.5,No
2015/03/16,22:10,0.546,0.335,0.568,0.528,0.555,0.255,0.228,south-southwest,4.8,No
2015/03/16,22:20,0.544,0.337,0.570,0.527,0.557,0.256,0.227,south-southwest,4.5,No
2015/03/16,22:30,0.543,0.334,0.568,0.525,0.556,0.256,0.226,south,4.3,No
2015/03/16,22:40,0.546,0.334,0.569,0.528,0.555,0.256,0.228,south,3.6,No
2015/03/16,22:50,0.543,0.337,0.568,0.525,0.557,0.255,0.226,south,4.5,No
2015/03/16,23:00,0.544,0.335,0.567,0.526,0.555,0.256,0.227,south,4.8,No
2015/03/16,23:10,0.546,0.334,0.570,0.528,0.555,0.255,0.228,south,5.8,No
2015/03/16,23:20,0.542,0.338,0.569,0.524,0.556,0.255,0.228,south,5.0,No
2015/03/16,23:30,0.546,0.333,0.570,0.527,0.556,0.254,0.227,south,4.6,No
2015/03/16,23:40,0.542,0.336,0.570,0.528,0.555,0.256,0.228,south,4.5,No
2015/03/16,23:50,0.542,0.336,0.567,0.525,0.557,0.256,0.228,south-southwest,4.5,No
